[[{"header":{"parameterUnit":"m.s-1","parameterCategory":1,"la1":30.2991,"la2":30.254,"lo1":-89.0895,"lo2":-89.0444,"dy":0.0017,"dx":0.0017,"nx":28,"ny":28,"refTime":"2024-09-26T09:00:00:Z","depth":0,"parameterNumber":2,"parameterNumberName":"U-component_of_WINDS"},"data":[0,0,0,0,0,0,0,0,0,0,0,0,0,0,0,0,0,0,0,0,0,0,0,0,0,0,0,0,0,0,0,0,0,0,0,0,0,0,0,0,0,0,0,0,0,0,0,0,0,0,0,0,0,0,0,0,0,0,-1.8296,-1.8296,0,-1.834,-1.8341,-1.8341,-1.8241,-1.8238,-1.8234,-1.8231,-1.8279,-1.8283,-1.8287,0,0,0,0,0,0,0,0,0,0,0,0,0,-1.8125,-1.8128,-1.8296,-1.8296,-1.8297,-1.834,-1.8341,-1.8341,-1.8241,-1.8238,-1.8234,-1.823,-1.8278,-1.8283,-1.8288,0,0,0,0,0,0,0,0,0,0,0,0,0,-1.8187,-1.813,-1.8296,-1.8252,-1.8249,-1.834,-1.8341,-1.8342,-1.8242,-1.8237,-1.8233,-1.8228,-1.8276,-1.8282,-1.8289,-1.8425,0,0,-1.8308,-1.8311,0,0,0,0,0,0,0,0,-1.8184,-1.8194,-1.8258,-1.8255,-1.8252,-1.828,-1.8298,-1.837,-1.8243,-1.8245,-1.8231,-1.8226,-1.8283,-1.8289,-1.8308,-1.8427,-1.8429,-1.8309,-1.8313,-1.8315,-1.8317,0,0,0,0,0,0,0,-1.818,-1.8191,-1.8313,-1.8259,-1.8255,-1.8231,-1.8234,-1.8311,-1.8291,-1.8244,-1.8237,-1.8244,-1.8281,-1.8302,-1.8308,-1.843,-1.8309,-1.8314,-1.8318,-1.8321,-1.8662,-1.8667,0,0,0,0,0,0,-1.8181,-1.8188,-1.8312,-1.8315,-1.8205,-1.8238,-1.8241,-1.8276,-1.829,-1.8287,-1.8248,-1.8239,-1.8293,-1.8301,-1.831,-1.847,-1.8315,-1.8321,-1.8325,-1.8657,-1.8663,-1.8669,0,0,0,0,0,0,-1.8177,-1.8193,-1.831,-1.825,-1.8263,-1.8246,-1.8285,-1.8279,-1.83,-1.8292,-1.8288,-1.8273,-1.829,-1.8301,-1.8397,-1.847,-1.8324,-1.833,-1.8651,-1.8659,-1.8666,-1.8793,0,0,0,0,0,0,-1.8173,-1.8192,-1.8244,-1.8251,-1.8266,-1.8397,-1.8289,-1.8284,-1.8311,-1.83,-1.8315,-1.8313,-1.8287,-1.8388,-1.8403,-1.8477,-1.8335,-1.8644,-1.8654,-1.8663,-1.8782,-1.8804,-1.8823,0,0,0,0,0,-1.8167,-1.8278,-1.8247,-1.8263,-1.833,-1.8401,-1.841,-1.8377,-1.8318,-1.837,-1.8364,-1.8312,-1.8459,-1.8398,-1.8415,-1.8491,-1.8639,-1.8651,-1.8663,-1.8773,-1.8799,-1.8822,0,0,0,0,0,0,-1.8281,-1.8279,-1.8244,-1.8361,-1.8382,-1.8384,-1.8449,-1.8407,-1.8446,-1.8434,-1.8392,-1.8396,-1.85,-1.8505,-1.8437,-1.8623,-1.8539,-1.8555,-1.8617,-1.8643,-1.8663,-1.866,-1.834,0,0,0,0,0,-1.8319,-1.8377,-1.8371,-1.8475,-1.8487,-1.8467,-1.8496,-1.8469,-1.8489,-1.8498,-1.8499,-1.8522,-1.8573,-1.8607,-1.8654,-1.8781,-1.8783,-1.8842,-1.8862,-1.8879,-1.8894,-1.8961,-1.8987,-1.8707,-1.8707,-1.8707,0,0,-1.84,-1.8406,-1.8445,-1.8498,-1.8511,-1.8572,-1.8475,-1.8543,-1.8588,-1.8509,-1.8599,-1.8601,-1.8623,-1.8735,-1.8785,-1.8742,-1.8971,-1.8894,-1.8907,-1.8913,-1.8976,-1.9002,-1.9026,-1.8715,-1.8714,-1.8713,0,0,-1.8578,-1.8588,-1.8676,-1.869,-1.8711,-1.8696,-1.8717,-1.8725,-1.8723,-1.8813,-1.8755,-1.8807,-1.8896,-1.8914,-1.8934,-1.9117,-1.9071,-1.9133,-1.9241,-1.9307,-1.9329,-1.9348,-1.9414,-1.9439,-1.9147,-1.9148,-1.9148,0,-1.8677,-1.8765,-1.8726,-1.8798,-1.8824,-1.8753,-1.8841,-1.8857,-1.8893,-1.8912,-1.8863,-1.8972,-1.8982,-1.9097,-1.9142,-1.9161,-1.9184,-1.9133,-1.9329,-1.9348,-1.9365,-1.9428,-1.9453,-1.9155,-1.9154,-1.9154,-1.9153,0,-1.8885,-1.8947,-1.9015,-1.905,-1.9083,-1.9163,-1.9136,-1.9173,-1.9142,-1.9133,-1.9225,-1.9233,-1.928,-1.9305,-1.9276,-1.9416,-1.9389,-1.9336,-1.9251,-1.94,-1.9458,-1.9482,-1.9166,-1.9163,-1.9161,-1.9159,0,0,-1.9139,-1.915,-1.9175,-1.919,-1.9207,-1.9254,-1.933,-1.9375,-1.9409,-1.9434,-1.9498,-1.9573,-1.9523,-1.9547,-1.9519,-1.9577,-1.9722,-1.9516,-1.9515,-1.9555,-1.9877,-1.9919,-1.9947,-1.969,-1.9694,-1.9698,-1.9875,0,-1.9316,-1.9447,-1.9413,-1.9544,-1.9601,-1.9533,-1.9599,-1.9617,-1.9609,-1.9656,-1.9647,-1.9702,-1.9631,-1.9645,-1.9699,-1.9693,-1.9786,-1.9679,-1.9749,-1.9752,-1.9748,-1.9977,-2.0022,-2.0189,-1.9898,-1.9901,-1.9904,0,-1.9541,-1.9575,-1.9711,-1.9717,-1.974,-1.9801,-1.9838,-1.9884,-1.9902,-1.9892,-1.9918,-1.9877,-1.9952,-1.9865,-1.9968,-1.9896,-1.9922,-1.9923,-1.9929,-1.9936,-1.9839,-1.9992,-2.0242,-2.0267,-1.9939,-1.9937,-1.9934,0,-1.9714,-1.9793,-1.9885,-1.99,-1.9909,-1.9953,-1.9959,-1.9972,-2.0001,-2.0033,-2.0052,-2.0093,-2.0116,-2.0149,-2.0121,-2.006,-2.0229,-2.0139,-2.0224,-2.0225,-2.0264,-2.0263,-2.0524,-2.0279,-2.0278,-2.0278,-2.0277,0,-1.9917,-2.0003,-1.9963,-2.002,-2.0114,-2.0073,-2.0168,-2.0166,-2.0178,-2.0233,-2.0176,-2.0229,-2.0188,-2.0237,-2.0216,-2.0304,-2.0315,-2.0309,-2.0303,-2.0316,-2.0317,-2.0334,-2.0322,-2.0284,-2.0283,-2.0282,-2.028,0,-2.0127,-2.0104,-2.0199,-2.0199,-2.0201,-2.0271,-2.0271,-2.0324,-2.031,-2.0381,-2.0395,-2.0375,-2.043,-2.0404,-2.0462,-2.0447,-2.0562,-2.0539,-2.0556,-2.0551,-2.0637,-2.063,-2.092,-2.0956,-2.0687,-2.0689,-2.0692,0,-2.0259,-2.0324,-2.033,-2.0363,-2.0373,-2.0426,-2.0454,-2.0416,-2.0448,-2.0473,-2.0522,-2.0572,-2.061,-2.07,-2.0691,-2.0735,-2.0714,-2.0812,-2.072,-2.073,-2.0716,-2.0714,-2.072,-2.0831,-2.0835,-2.0837,-2.0839,0,-2.0496,-2.048,-2.0524,-2.0563,-2.0599,-2.0628,-2.0652,-2.0682,-2.0644,-2.0684,-2.0739,-2.0768,-2.0826,-2.0876,-2.0914,-2.092,-2.0874,-2.0868,-2.089,-2.0904,-2.0912,-2.091,-2.0608,-2.0862,-2.086,-2.0858,-2.0857,-2.0856,-2.0671,-2.0726,-2.0739,-2.0789,-2.0803,-2.0826,-2.0875,-2.0868,-2.0913,-2.0957,-2.0931,-2.0996,-2.101,-2.1056,-2.1068,-2.1118,-2.1079,-2.1111,-2.1119,-2.1128,-2.114,-2.0902,-2.1124,-2.1124,-2.1123,-2.1123,-2.1122,0,-2.0906,-2.091,-2.0957,-2.0992,-2.1032,-2.0983,-2.1007,-2.1043,-2.1101,-2.1118,-2.1156,-2.1219,-2.1267,-2.1261,-2.1304,-2.1345,-2.1326,-2.1358,-2.1356,-2.1358,-2.1172,-2.1149,-2.1374,-2.1374,-2.1374,-2.1374,-2.1374,-2.1374,-2.1033,-2.1122,-2.1108,-2.1203,-2.1207,-2.127,-2.1287,-2.1309,-2.1322,-2.1395,-2.1435,-2.1429,-2.1437,-2.1481,-2.1523,-2.1519,-2.1539,-2.158,-2.1569,-2.1396,-2.1371,-2.1348,-2.1326,-2.1584,-2.1584,-2.1751,-2.1753,-2.1754]},{"header":{"parameterUnit":"m.s-1","parameterCategory":1,"la1":30.2991,"la2":30.254,"lo1":-89.0895,"lo2":-89.0444,"dy":0.0017,"dx":0.0017,"nx":28,"ny":28,"refTime":"2024-09-26T09:00:00:Z","depth":0,"parameterNumber":3,"parameterNumberName":"V-component_of_WINDS"},"data":[0,0,0,0,0,0,0,0,0,0,0,0,0,0,0,0,0,0,0,0,0,0,0,0,0,0,0,0,0,0,0,0,0,0,0,0,0,0,0,0,0,0,0,0,0,0,0,0,0,0,0,0,0,0,0,0,0,0,-6.4477,-6.4478,0,-6.4569,-6.457,-6.4571,-6.4512,-6.451,-6.4507,-6.4504,-6.4593,-6.4598,-6.4602,0,0,0,0,0,0,0,0,0,0,0,0,0,-6.4245,-6.425,-6.4477,-6.4478,-6.448,-6.4569,-6.457,-6.4571,-6.4513,-6.4509,-6.4506,-6.4503,-6.4591,-6.4597,-6.4603,0,0,0,0,0,0,0,0,0,0,0,0,0,-6.4342,-6.4251,-6.4477,-6.4461,-6.4461,-6.4568,-6.457,-6.4571,-6.4513,-6.4509,-6.4505,-6.4502,-6.4589,-6.4596,-6.4604,-6.473,0,0,-6.4626,-6.4629,0,0,0,0,0,0,0,0,-6.4337,-6.4351,-6.4462,-6.4463,-6.4462,-6.4525,-6.452,-6.4624,-6.4515,-6.4493,-6.4504,-6.45,-6.4573,-6.4582,-6.4608,-6.4734,-6.4738,-6.4627,-6.4631,-6.4634,-6.4636,0,0,0,0,0,0,0,-6.433,-6.4347,-6.4513,-6.4464,-6.4464,-6.4447,-6.4457,-6.454,-6.4555,-6.4495,-6.4491,-6.4503,-6.4572,-6.4601,-6.4609,-6.4739,-6.4626,-6.4633,-6.4637,-6.464,-6.4972,-6.4977,0,0,0,0,0,0,-6.4326,-6.4341,-6.451,-6.4516,-6.4388,-6.4455,-6.4465,-6.4509,-6.4554,-6.4557,-6.4506,-6.45,-6.459,-6.4601,-6.4612,-6.4762,-6.4634,-6.4641,-6.4645,-6.4968,-6.4973,-6.4978,0,0,0,0,0,0,-6.4321,-6.4341,-6.4507,-6.4428,-6.4447,-6.4463,-6.4513,-6.4513,-6.4541,-6.4562,-6.4564,-6.4533,-6.4587,-6.4602,-6.4701,-6.4764,-6.4644,-6.4651,-6.4963,-6.497,-6.4976,-6.5064,0,0,0,0,0,0,-6.4314,-6.434,-6.439,-6.4429,-6.4452,-6.4597,-6.4517,-6.4518,-6.4555,-6.4547,-6.4588,-6.4591,-6.4585,-6.4691,-6.4709,-6.4772,-6.4657,-6.4957,-6.4966,-6.4974,-6.5056,-6.5073,-6.5088,0,0,0,0,0,-6.4306,-6.441,-6.4393,-6.4413,-6.4515,-6.46,-6.4613,-6.4606,-6.456,-6.4609,-6.4622,-6.4589,-6.4755,-6.4701,-6.4721,-6.4788,-6.4953,-6.4963,-6.4973,-6.5049,-6.507,-6.5088,0,0,0,0,0,0,-6.4376,-6.4415,-6.4396,-6.4516,-6.4556,-6.459,-6.4652,-6.4629,-6.4681,-6.4672,-6.4659,-6.4669,-6.4773,-6.479,-6.473,-6.4912,-6.4846,-6.4861,-6.4897,-6.4917,-6.4933,-6.4926,-6.4663,0,0,0,0,0,-6.4406,-6.4474,-6.4503,-6.4606,-6.4627,-6.4637,-6.4673,-6.4665,-6.4704,-6.472,-6.4741,-6.4779,-6.4839,-6.4879,-6.4936,-6.5058,-6.5065,-6.5113,-6.5129,-6.5143,-6.5155,-6.5219,-6.5241,-6.5011,-6.5011,-6.5011,0,0,-6.4467,-6.4497,-6.454,-6.4621,-6.4651,-6.4719,-6.4651,-6.4727,-6.4777,-6.4731,-6.4827,-6.4843,-6.4884,-6.4995,-6.5045,-6.5013,-6.522,-6.5155,-6.5166,-6.5171,-6.5232,-6.5253,-6.5273,-6.5018,-6.5017,-6.5015,0,0,-6.4614,-6.4645,-6.4733,-6.4764,-6.481,-6.4815,-6.4837,-6.4875,-6.4885,-6.4981,-6.4947,-6.5005,-6.511,-6.5141,-6.517,-6.5327,-6.5298,-6.5346,-6.543,-6.5492,-6.551,-6.5526,-6.5581,-6.5602,-6.5358,-6.5358,-6.5358,0,-6.4684,-6.4789,-6.4781,-6.486,-6.4895,-6.4858,-6.4947,-6.4976,-6.5038,-6.5062,-6.5026,-6.5155,-6.5181,-6.5298,-6.5336,-6.5361,-6.5383,-6.5341,-6.5509,-6.5525,-6.554,-6.5592,-6.5613,-6.5364,-6.5363,-6.5362,-6.5362,0,-6.4872,-6.4945,-6.501,-6.5072,-6.5115,-6.5198,-6.5201,-6.5245,-6.5232,-6.524,-6.5337,-6.5366,-6.5428,-6.5455,-6.5443,-6.557,-6.5548,-6.5511,-6.5445,-6.5567,-6.5616,-6.5636,-6.5372,-6.537,-6.5368,-6.5367,0,0,-6.5066,-6.5123,-6.5147,-6.5174,-6.5221,-6.5276,-6.5356,-6.5418,-6.5455,-6.5498,-6.5564,-6.5653,-6.5618,-6.5651,-6.5642,-6.5697,-6.5818,-6.5652,-6.5653,-6.5681,-6.5958,-6.5986,-6.601,-6.5799,-6.5803,-6.5806,-6.5955,0,-6.5216,-6.5358,-6.5353,-6.5485,-6.555,-6.5516,-6.5585,-6.562,-6.563,-6.5685,-6.5695,-6.5758,-6.5708,-6.5727,-6.5781,-6.5792,-6.5874,-6.5782,-6.5858,-6.5861,-6.5849,-6.6035,-6.6065,-6.6204,-6.5974,-6.5977,-6.5979,0,-6.5409,-6.5461,-6.56,-6.5636,-6.5664,-6.5727,-6.5782,-6.5836,-6.5874,-6.5877,-6.5914,-6.5895,-6.5974,-6.5906,-6.6013,-6.5951,-6.5981,-6.5992,-6.5997,-6.6004,-6.5928,-6.6046,-6.6249,-6.6269,-6.601,-6.6007,-6.6005,0,-6.5536,-6.564,-6.5736,-6.576,-6.5806,-6.585,-6.5871,-6.5905,-6.5942,-6.599,-6.6013,-6.6069,-6.6099,-6.6141,-6.6137,-6.6088,-6.6245,-6.6177,-6.6248,-6.6249,-6.6283,-6.6281,-6.6493,-6.6304,-6.6304,-6.6303,-6.6303,0,-6.5704,-6.579,-6.5794,-6.5853,-6.5947,-6.5939,-6.6032,-6.6048,-6.6079,-6.6138,-6.6111,-6.6167,-6.6158,-6.6214,-6.6211,-6.6299,-6.6313,-6.6316,-6.6315,-6.6319,-6.6319,-6.6339,-6.6329,-6.6309,-6.6307,-6.6306,-6.6305,0,-6.5862,-6.5868,-6.597,-6.6005,-6.6015,-6.6084,-6.6112,-6.6167,-6.6174,-6.625,-6.6267,-6.6277,-6.6341,-6.6341,-6.6414,-6.6412,-6.652,-6.6507,-6.6508,-6.6505,-6.6576,-6.6569,-6.6808,-6.6838,-6.663,-6.6632,-6.6634,0,-6.5968,-6.6034,-6.6075,-6.6114,-6.6138,-6.6201,-6.6239,-6.6232,-6.6272,-6.632,-6.6369,-6.6431,-6.648,-6.6583,-6.6596,-6.6651,-6.6639,-6.6719,-6.6647,-6.6649,-6.6639,-6.6635,-6.6641,-6.6733,-6.6735,-6.6737,-6.6738,0,-6.6156,-6.6155,-6.6212,-6.627,-6.6316,-6.636,-6.6401,-6.6434,-6.6432,-6.6477,-6.6544,-6.6582,-6.6656,-6.6717,-6.677,-6.6788,-6.6763,-6.6761,-6.678,-6.6785,-6.6782,-6.6784,-6.6545,-6.6755,-6.6754,-6.6752,-6.6751,-6.6751,-6.6291,-6.6347,-6.6385,-6.6448,-6.6479,-6.6517,-6.6571,-6.6584,-6.664,-6.6701,-6.6693,-6.6766,-6.6801,-6.6869,-6.6893,-6.6948,-6.692,-6.6948,-6.6955,-6.6962,-6.6969,-6.6774,-6.6958,-6.6957,-6.6957,-6.6956,-6.6956,0,-6.6476,-6.6499,-6.6557,-6.6616,-6.6665,-6.6638,-6.6682,-6.6724,-6.679,-6.6825,-6.6874,-6.6949,-6.7007,-6.7025,-6.7081,-6.7122,-6.7111,-6.7137,-6.7133,-6.7138,-6.6992,-6.6969,-6.7144,-6.7144,-6.7144,-6.7144,-6.7144,-6.7144,-6.6579,-6.6672,-6.6676,-6.6783,-6.6804,-6.6877,-6.6904,-6.6939,-6.6967,-6.7053,-6.7102,-6.7113,-6.714,-6.7198,-6.725,-6.7253,-6.7275,-6.7305,-6.7303,-6.7167,-6.7148,-6.713,-6.7109,-6.731,-6.731,-6.7444,-6.7445,-6.7446]}]]